Weather History for KCKC - April, 2013

Change the Weather History Date:

Thursday, April 18, 2013

  Actual Average Record
Temperature  
Mean Temperature 28 °F -  
Max Temperature 33 °F 44 °F 69 °F (2005)
Min Temperature 24 °F 26 °F 10 °F (2011)
Degree Days  
Heating Degree Days 36    
Moisture  
Dew Point 23 °F    
Average Humidity 82    
Maximum Humidity 93    
Minimum Humidity 75    
Precipitation  
Precipitation 0.16 in - - ()
Sea Level Pressure  
Sea Level Pressure 29.74 in    
Wind  
Wind Speed 10 mph (North)    
Max Wind Speed 24 mph    
Max Gust Speed 33 mph    
Visibility 2 miles    
Events Snow    
Averages and records for this station are not official NWS values.
T = Trace of Precipitation, MM = Missing Value Source: NWS Daily Summary

Daily Weather History Graph

Daily Weather History Graph

Search for Another Location

Airport or City:

Trip Planner

Search our weather history database for the weather conditions in past years. The results will help you decide how hot, cold, wet, or windy it might be!

Date:

Astronomy

Apr. 18, 2013 Rise Set
Actual Time 6:06 AM CDT 7:56 PM CDT
Civil Twilight 5:33 AM CDT 8:29 PM CDT
Nautical Twilight 4:53 AM CDT 9:09 PM CDT
Astronomical Twilight 4:08 AM CDT 9:54 PM CDT
Moon 12:13 PM CDT (4/18) 2:16 AM CDT (4/18)
Length of Visible Light 14h 55m
Length of Day
13h 50m
First Quarter, 52% of the Moon is Illuminated
Apr 18
First Quarter
Apr 25
Full
May 2
Last Quarter
May 9
New
May 17
First Quarter

Hourly Weather History & Observations

Time (CDT) Temp. Windchill Dew Point Humidity Pressure Visibility Wind Dir Wind Speed Gust Speed Precip Events Conditions
12:14 AM 24.8 °F 20.5 °F 19.4 °F 80% 30.06 in 5.0 mi North 3.5 mph - N/A Snow Light Snow
12:34 AM 24.8 °F 16.9 °F 19.4 °F 80% 30.05 in 2.0 mi North 6.9 mph - N/A Snow Light Snow
12:54 AM 24.8 °F 19.1 °F 19.4 °F 80% 30.03 in 2.0 mi North 4.6 mph - N/A Snow Light Snow
1:14 AM 24.8 °F 16.9 °F 19.4 °F 80% 30.01 in 2.5 mi North 6.9 mph - N/A Snow Light Snow
1:33 AM 24.8 °F 16.9 °F 19.4 °F 80% 30.00 in 3.0 mi North 6.9 mph - N/A Snow Light Snow
1:53 AM 24.8 °F 16.1 °F 19.4 °F 80% 29.98 in 5.0 mi North 8.1 mph - N/A Snow Light Snow
2:14 AM 24.8 °F 16.9 °F 19.4 °F 80% 29.96 in 4.0 mi North 6.9 mph - N/A Snow Light Snow
2:33 AM 24.8 °F 16.1 °F 19.4 °F 80% 29.95 in 3.0 mi North 8.1 mph - N/A Snow Light Snow
2:53 AM 24.8 °F 16.1 °F 19.4 °F 80% 29.95 in 1.0 mi NNW 8.1 mph - N/A Snow Snow
3:14 AM 24.8 °F 15.3 °F 21.2 °F 86% 29.93 in 1.0 mi North 9.2 mph - N/A Snow Snow
3:33 AM 24.8 °F 15.3 °F 19.4 °F 80% 29.92 in 1.0 mi North 9.2 mph - N/A Snow Snow
3:54 AM 24.8 °F 15.3 °F 19.4 °F 80% 29.90 in 1.5 mi North 9.2 mph - N/A Snow Light Snow
4:13 AM 24.8 °F 14.6 °F 19.4 °F 80% 29.89 in 1.5 mi North 10.4 mph - N/A Snow Light Snow
4:33 AM 24.8 °F 14.0 °F 19.4 °F 80% 29.90 in 1.8 mi North 11.5 mph - N/A Snow Light Snow
4:54 AM 24.8 °F 14.6 °F 21.2 °F 86% 29.89 in 1.8 mi North 10.4 mph - N/A Snow Light Snow
5:13 AM 24.8 °F 15.3 °F 21.2 °F 86% 29.87 in 2.0 mi North 9.2 mph - N/A Snow Light Snow
5:33 AM 24.8 °F 14.6 °F 21.2 °F 86% 29.87 in 2.5 mi North 10.4 mph - 0.01 in Snow Light Snow
5:54 AM 24.8 °F 15.3 °F 21.2 °F 86% 29.85 in 2.5 mi North 9.2 mph - 0.01 in Snow Light Snow
6:13 AM 24.8 °F 14.6 °F 21.2 °F 86% 29.85 in 2.0 mi North 10.4 mph - N/A Snow Light Snow
6:34 AM 24.8 °F 14.6 °F 21.2 °F 86% 29.86 in 1.0 mi North 10.4 mph - 0.01 in Snow Light Snow
6:54 AM 26.6 °F 17.5 °F 21.2 °F 80% 29.85 in 1.2 mi North 9.2 mph - 0.01 in Snow Light Snow
7:14 AM 26.6 °F 17.5 °F 21.2 °F 80% 29.85 in 2.0 mi North 9.2 mph - N/A Snow Light Snow
7:34 AM 26.6 °F 18.2 °F 21.2 °F 80% 29.85 in 2.0 mi North 8.1 mph - N/A Snow Light Snow
7:53 AM 26.6 °F 18.2 °F 23.0 °F 86% 29.84 in 2.0 mi North 8.1 mph - N/A Snow Light Snow
8:13 AM 26.6 °F 17.5 °F 23.0 °F 86% 29.83 in 4.0 mi North 9.2 mph - N/A Snow Light Snow
8:34 AM 28.4 °F 19.1 °F 23.0 °F 80% 29.82 in 1.8 mi North 10.4 mph - N/A Snow Light Snow
8:54 AM 28.4 °F 18.5 °F 23.0 °F 80% 29.82 in 1.0 mi North 11.5 mph 16.1 mph N/A Snow Light Snow
9:13 AM 28.4 °F 19.1 °F 24.8 °F 86% 29.82 in 0.8 mi North 10.4 mph - N/A Snow Light Snow
9:34 AM 28.4 °F 19.7 °F 24.8 °F 86% 29.81 in 1.2 mi North 9.2 mph - N/A Snow Light Snow
9:54 AM 28.4 °F 18.0 °F 24.8 °F 86% 29.79 in 1.0 mi North 12.7 mph - 0.01 in Snow Light Snow
10:13 AM 28.4 °F 18.5 °F 24.8 °F 86% 29.77 in 1.8 mi NNE 11.5 mph 17.3 mph N/A Snow Light Snow
10:33 AM 30.2 °F 20.2 °F 24.8 °F 80% 29.75 in 2.0 mi North 12.7 mph 23.0 mph 0.01 in Snow Light Snow
10:53 AM 30.2 °F 20.8 °F 24.8 °F 80% 29.73 in 3.0 mi North 11.5 mph 24.2 mph 0.01 in Snow Light Snow
11:13 AM 32.0 °F 22.5 °F 24.8 °F 75% 29.73 in 5.0 mi North 12.7 mph 24.2 mph N/A Snow Light Snow
11:33 AM 30.2 °F 20.2 °F 24.8 °F 80% 29.74 in 3.0 mi North 12.7 mph - 0.01 in   Haze
11:54 AM 30.2 °F 20.2 °F 24.8 °F 80% 29.73 in 2.0 mi North 12.7 mph 17.3 mph 0.01 in Snow Light Snow
12:14 PM 32.0 °F 23.0 °F 24.8 °F 75% 29.73 in 2.5 mi North 11.5 mph - N/A Snow Light Snow
12:34 PM 32.0 °F 23.0 °F 24.8 °F 75% 29.70 in 2.5 mi North 11.5 mph 17.3 mph 0.01 in Snow Light Snow
12:54 PM 32.0 °F 23.0 °F 24.8 °F 75% 29.70 in 4.0 mi North 11.5 mph 17.3 mph 0.01 in Snow Light Snow
1:14 PM 33.8 °F 26.4 °F 26.6 °F 75% 29.69 in 4.0 mi North 9.2 mph 20.7 mph N/A   Haze
1:33 PM 32.0 °F 22.1 °F 24.8 °F 75% 29.71 in 5.0 mi North 13.8 mph 20.7 mph N/A   Haze
1:53 PM 32.0 °F 20.8 °F 24.8 °F 75% 29.69 in 5.0 mi North 17.3 mph 20.7 mph N/A   Haze
2:13 PM 32.0 °F 21.6 °F 24.8 °F 75% 29.68 in 4.0 mi North 15.0 mph 19.6 mph N/A   Haze
2:33 PM 32.0 °F 23.6 °F 26.6 °F 80% - 4.0 mi North 10.4 mph 17.3 mph N/A   Haze
2:54 PM 30.2 °F 19.8 °F 26.6 °F 86% 29.67 in 1.5 mi North 13.8 mph - N/A Snow Light Snow
3:34 PM 30.2 °F 20.2 °F 26.6 °F 86% 29.67 in 2.5 mi North 12.7 mph 21.9 mph N/A Snow Light Snow
4:13 PM 30.2 °F 18.9 °F 26.6 °F 86% 29.63 in 0.8 mi North 16.1 mph 21.9 mph N/A Snow Light Snow
4:34 PM 30.2 °F 18.9 °F 24.8 °F 80% 29.64 in 1.2 mi North 16.1 mph 25.3 mph N/A Snow Light Snow
4:53 PM 28.4 °F 19.1 °F 24.8 °F 86% 29.66 in 1.0 mi North 10.4 mph 15.0 mph N/A Snow Snow
5:13 PM 28.4 °F 19.1 °F 24.8 °F 86% 29.66 in 0.5 mi North 10.4 mph - N/A Snow Snow
5:34 PM 28.4 °F 16.2 °F 24.8 °F 86% 29.63 in 0.5 mi North 17.3 mph 23.0 mph 0.02 in Snow Snow
5:53 PM 28.4 °F 15.8 °F 24.8 °F 86% 29.61 in 0.5 mi North 18.4 mph 23.0 mph 0.02 in Snow Snow
6:13 PM 28.4 °F 18.0 °F 24.8 °F 86% 29.59 in 0.8 mi North 12.7 mph - 0.01 in Snow Snow
6:34 PM 28.4 °F 16.2 °F 24.8 °F 86% 29.58 in 0.8 mi North 17.3 mph 25.3 mph 0.01 in Snow Snow
6:53 PM 28.4 °F 14.7 °F 24.8 °F 86% 29.56 in 0.8 mi North 21.9 mph 27.6 mph 0.02 in Snow Snow
7:13 PM 28.4 °F 14.7 °F 24.8 °F 86% 29.55 in 0.5 mi North 21.9 mph 29.9 mph N/A Snow Snow
7:34 PM 26.6 °F 11.7 °F 24.8 °F 93% 29.53 in 0.2 mi North 24.2 mph 32.2 mph 0.01 in Snow Heavy Snow
7:54 PM 26.6 °F 13.4 °F 23.0 °F 86% 29.55 in 1.0 mi North 18.4 mph 28.8 mph 0.01 in Snow Light Snow
8:14 PM 26.6 °F 13.1 °F 23.0 °F 86% 29.56 in 0.8 mi North 19.6 mph 25.3 mph N/A Snow Snow
8:33 PM 26.6 °F 13.4 °F 23.0 °F 86% 29.56 in 0.5 mi North 18.4 mph 28.8 mph 0.01 in Snow Heavy Snow
8:53 PM 26.6 °F 12.4 °F 23.0 °F 86% 29.55 in 0.8 mi North 21.9 mph 26.5 mph 0.02 in Snow Snow
9:13 PM 26.6 °F 13.1 °F 21.2 °F 80% 29.51 in 0.8 mi North 19.6 mph 31.1 mph N/A Snow Snow
9:34 PM 26.6 °F 12.4 °F 21.2 °F 80% 29.49 in 0.5 mi North 21.9 mph 32.2 mph N/A Snow Snow
9:54 PM 26.6 °F 12.4 °F 21.2 °F 80% 29.52 in 1.0 mi North 21.9 mph 33.4 mph N/A Snow Light Snow
10:34 PM 26.6 °F 12.7 °F 21.2 °F 80% 29.55 in 0.5 mi North 20.7 mph 25.3 mph 0.01 in Snow Heavy Snow
10:54 PM 26.6 °F 13.4 °F 21.2 °F 80% 29.53 in 0.2 mi North 18.4 mph 26.5 mph 0.02 in Snow Heavy Snow
11:13 PM 24.8 °F 9.6 °F 21.2 °F 86% 29.48 in 0.2 mi North 23.0 mph 29.9 mph 0.01 in Snow Heavy Snow
11:34 PM 24.8 °F 10.7 °F 21.2 °F 86% 29.47 in 0.2 mi North 19.6 mph 33.4 mph 0.01 in Snow Heavy Snow
11:53 PM 24.8 °F 9.6 °F 21.2 °F 86% 29.44 in 0.5 mi North 23.0 mph 33.4 mph 0.01 in Snow Snow